User: anonymous   Login
Location: Sherrills_Ford_Terrell
(35.6000°N, 80.9830°W)
Time: 21:27:28
(UTC-04:00)
Language:

CZ-4B R/B - Orbit

View from above orbital plane
View from above orbital plane
View from above satellite
View from above satellite

Ground track
Ground track

The orbit data is extracted from the following two-line orbital elements,

1 29093U 06015B   16120.77520954  .00004177  00000-0  11117-3 0  9997
2 29093  97.4814 217.2813 0069933   2.2321 357.9221 15.36320268553987
Epoch (UTC): 29 April 2016 18:36:18
Eccentricity: 0.0069933
inclination: 97.4814°
perigee height: 409 km
apogee height: 505 km
right ascension of ascending node: 217.2813°
argument of perigee: 2.2321°
revolutions per day: 15.36320268
mean anomaly at epoch: 357.9221°
orbit number at epoch: 55398

The dashed part of the orbit path shows where the satellite is in the earth's shadow,  

DLR